STARLINK-36691, 67735

Orbit data source: Space-Track

STARLINK-36691, 67735 is a payload satellite owned by SpaceX/Seattle (US) in SSO that was launched on Wed, 11 Feb 2026 UTC via an FALCON 9 launch vehicle from the Air Force Western Test Range (AFWTR). Payload-class satellites include a variety of spacecraft equipped with specific instruments for various scientific and technological missions. These include communications satellites like Starlink; space stations such as the ISS; scientific satellites like the Hubble; Earth observation satellites from companies like Planet Labs, Umbra, and HawkEye 360; GPS; miniature CubeSats for education and research; and military/defense satellites.

Loading next visibility...
Identifier
67735, 2026-026Q
Orbit
SSO
Country
Flag of USUS
Related business
Manufacturer
SpaceX/Seattle
Mission
Operational Commercial Communications
Bus & Motor
STARLINK V2MO, Unknown motor
Mass
575 kg wet, ~530 kg dry
Launch date (UTC)
2026-02-11 (3 months ago)
Launch vehicle
FALCON 9
Launch site
Air Force Western Test Range (AFWTR)
Object type
Payload
Rocket body
Debris
Shape & HBR
Box + 2 Pan, 17.7 m
Radar Cross Section
36.964 m²

Expand to show TLE details & history
Last TLE update: 8 hours ago

TLE from 8 hours ago
0 STARLINK-36691
1 67735U 26026Q   26130.12879481  .00010368  00000-0  32281-3 0  9993
2 67735  97.2842 183.8960 0000766 127.1624 232.9689 15.33467762 13545
Epoch: 2026-05-10T03:05Z
TLE epoch observation values (Epoch: 2026-05-10T03:05:27.871Z)
Latitude
-0.00001°
Longitude
-90.40644°
Altitude
468.903 km
Speed
7.632 km/s
True Right ascension
12h 15m 35s
True Declination
0° 00' 00"
Sunlit
Object was in full shadow at epoch
Visualization orbit readout
Latitude
Unknown
Longitude
Unknown
Altitude
Unknown
Speed
Unknown
Apparent Right ascension
Unknown
Apparent Declination
Unknown
Sunlit
N/A
Visualization observer readout
Local Sidereal Time
18:56:53
Azimuth
Unknown
Elevation
Unknown
Doppler factor
Unknown
Orbital elements
Apogee altitude
462.942 km
Perigee altitude
461.894 km
Semi-major axis
6,840.555 km
Eccentricity
0.00008
Inclination
97.2842°
RAAN
183.896°
Arg. of periapsis
127.1624°
True anomaly
232.96189°
Mean anomaly
232.9689°
Eccentric anomaly
232.9654°
Mean motion
3.83624 °/min
Orbital period
93.84 mins
BSTAR
0.00032281
Loading maneuver chart data...
Computing Atmospheric mass density...
Loading historical data...
Loading historical data...
Loading historical data...
Loading historical data...
Loading historical data...
Loading historical data...
Loading historical data...

Documentation

Showing up to 5 results
|